Location: Goettingen
(51.5300°N, 9.9433°E)
Time: 19:55:35
(UTC+02:00)

ISS - Pass Details

Date: 15 July 2019
Orbit: 409 x 418 km, 51.6° (Epoch: 20 July)

Event Time Altitude Azimuth Distance (km) Brightness Sun altitude
Exits shadow 02:20:42 - 266° (W) 1,781 -0.7 -15.9°
Reaches altitude 10° 02:21:25 10° 266° (W) 1,484 -1.1 -15.9°
Maximum altitude 02:24:45 87° 358° (N) 418 -3.8 -15.8°
Drops below altitude 10° 02:28:05 10° 86° (E) 1,480 -0.8 -15.6°
Sets 02:30:10 0° 87° (E) 2,341 0.3 -15.5°
